Location: Kapla
(46.2483°N, 15.0094°E)
Time: 21:33:48
(UTC+00:00)

ERS-2 - Pass Details

Date: 03 March 2021
Orbit: 492 x 496 km, 98.6° (Epoch: 21 April)

Event Time Altitude Azimuth Distance (km) Brightness Sun altitude
Rises 18:21:40 0° 8° (N) 2,595 5.8 -16.8°
Reaches altitude 10° 18:23:48 10° 1° (N) 1,708 4.9 -17.1°
Maximum altitude 18:27:18 43° 290° (WNW) 707 3.4 -17.7°
Drops below altitude 10° 18:30:46 10° 218° (SW) 1,696 5.2 -18.3°
Sets 18:32:54 0° 211° (SSW) 2,574 6.0 -18.7°
